Temperature
6 6 6 5 5 5 5 4 4 3 3 4 4 4 4 4 4 4 3 3 3 3 3 2 2 2 2 2 2 2 2 2 2 2 2 2 2 2
6 5 5 5 5 5 4 4 3 3 3 3 3 4 3 3 3 3 3 3 3 3 2 2 2 2 2 2 2 1 1 1 1 1 1 1 2 2
5 5 5 4 4 4 4 4 3 3 3 3 3 3 3 3 3 3 3 3 2 2 2 2 1 1 1 1 1 1 1 1 1 1 1 1 1 1
5 4 4 4 4 4 4 3 3 3 2 2 3 3 3 3 3 3 2 2 2 2 2 1 1 1 1 1 1 1 1 1 0 1 1 1 1 1
4 4 4 4 3 3 3 3 3 3 2 2 2 2 2 2 2 2 2 2 2 2 1 1 1 1 1 1 0 0 0 0 0 0 0 0 0 0
4 3 3 3 3 3 3 3 2 2 2 2 2 2 2 2 2 2 2 2 1 1 1 1 1 1 0 0 0 0 -0 -0 0 -0 -0 -0 -0 -0
3 3 3 2 2 2 2 2 2 2 2 2 1 1 1 1 1 1 0 1 1 1 1 1 0 0 0 0 0 -0 -0 -0 -0 -0 -0 -0 -1 -0
3 3 2 2 2 2 2 2 2 2 1 1 1 1 1 1 0 -0 -0 -1 -0 0 -0 0 0 0 0 -0 -0 -0 -0 -0 -1 -1 -1 -1 -1 -1
2 2 2 2 2 2 2 2 2 1 1 1 1 0 0 -0 -0 -0 -1 -1 -1 -1 -1 -1 -0 -0 -0 -0 -0 -0 -1 -1 -1 -1 -1 -1 -1 -1
2 2 2 2 1 1 1 1 2 1 1 1 0 0 -0 -0 -1 -1 -1 -1 -1 -1 -2 -2 -1 -1 -1 -0 -1 -1 -1 -1 -1 -1 -1 -1 -1 -1
1 1 1 1 1 1 1 1 1 1 1 0 0 -0 -0 -1 -1 -1 -2 -2 -2 -1 -2 -2 -2 -2 -1 -1 -1 -1 -1 -1 -1 -1 -1 -1 -1 -1
1 1 1 1 1 0 0 0 0 0 0 0 0 -0 -0 -1 -1 -2 -2 -3 -3 -3 -2 -2 -2 -2 -2 -1 -1 -1 -1 -1 -1 -2 -2 -2 -2 -2
1 1 0 0 0 0 -0 -0 -0 -0 -0 -0 -0 -1 -1 -1 -1 -2 -2 -3 -3 -3 -3 -3 -3 -3 -3 -3 -2 -1 -1 -1 -1 -2 -2 -2 -2 -2
0 0 -0 -0 -0 -0 -0 -1 -1 -1 -1 -1 -1 -1 -1 -1 -1 -2 -2 -2 -3 -3 -3 -3 -3 -3 -3 -3 -3 -2 -2 -2 -2 -2 -2 -2 -2 -2
-1 -1 -1 -1 -1 -1 -1 -1 -1 -1 -1 -1 -1 -2 -2 -2 -2 -2 -2 -2 -2 -2 -3 -3 -3 -3 -3 -3 -3 -2 -2 -2 -2 -2 -2 -2 -2 -2
-1 -1 -1 -1 -1 -1 -1 -1 -2 -2 -2 -2 -2 -2 -2 -2 -2 -2 -2 -2 -2 -2 -2 -2 -3 -3 -3 -2 -3 -3 -3 -3 -2 -2 -2 -2 -2 -2
-2 -1 -2 -2 -2 -2 -2 -2 -2 -2 -2 -2 -2 -2 -2 -2 -2 -2 -3 -3 -3 -3 -2 -2 -2 -2 -2 -3 -2 -3 -3 -3 -3 -3 -3 -3 -3 -3
-2 -2 -2 -2 -2 -3 -3 -3 -3 -3 -3 -2 -3 -3 -3 -3 -3 -3 -3 -3 -4 -3 -3 -3 -3 -2 -2 -2 -3 -3 -3 -3 -3 -3 -3 -3 -3 -2
-2 -3 -3 -3 -3 -3 -3 -3 -3 -3 -3 -3 -3 -3 -3 -3 -3 -3 -3 -4 -4 -4 -4 -3 -3 -4 -4 -4 -3 -3 -3 -3 -3 -3 -3 -3 -3 -3
-3 -3 -3 -3 -3 -3 -3 -3 -3 -3 -3 -3 -3 -3 -4 -4 -4 -4 -4 -4 -4 -4 -4 -3 -4 -4 -4 -4 -4 -3 -3 -3 -3 -3 -3 -3 -3 -3
-3 -4 -4 -4 -4 -4 -4 -4 -4 -4 -4 -4 -4 -4 -4 -4 -4 -4 -4 -4 -4 -4 -4 -4 -4 -4 -4 -4 -4 -3 -3 -3 -3 -3 -3 -3 -3 -3
-4 -4 -4 -4 -4 -4 -4 -4 -4 -4 -4 -4 -4 -4 -4 -4 -4 -4 -4 -4 -4 -4 -4 -4 -3 -3 -3 -4 -4 -4 -3 -3 -3 -3 -3 -3 -3 -3
-4 -4 -4 -4 -4 -4 -4 -4 -4 -4 -4 -4 -4 -4 -4 -4 -4 -4 -4 -4 -4 -4 -4 -4 -3 -3 -4 -4 -4 -4 -4 -3 -3 -3 -3 -3 -3 -3
Wind_Speed
1 1 0 1 1 1 1 1 2 4 6 4 3 4 7 8 11 11 12 15 17 17 17 18 18 18 19 19 20 19 20 20 20 20 20 20 20 20
1 1 1 1 1 1 1 2 2 4 5 4 5 6 8 9 12 12 12 16 16 17 18 18 18 18 18 18 19 19 20 20 20 19 19 20 20 20
1 1 1 1 1 1 1 2 3 3 6 7 6 6 7 7 9 11 12 11 12 17 18 18 18 18 17 17 18 19 19 19 20 19 19 20 20 20
1 1 1 1 2 2 2 2 3 3 5 8 7 7 7 7 7 8 10 11 11 15 16 18 18 17 17 17 18 19 19 19 19 19 19 19 20 19
2 2 2 1 2 2 3 3 3 4 4 6 8 6 6 6 7 8 8 8 11 13 15 16 16 17 17 18 18 18 18 19 19 19 19 19 19 19
1 2 2 2 3 3 3 3 3 4 5 5 6 7 6 6 6 7 9 7 8 9 12 14 15 16 17 18 18 18 18 18 18 18 18 18 18 17
1 2 2 2 3 3 3 3 3 4 4 5 6 6 6 7 7 6 8 9 8 5 7 8 9 9 11 14 16 18 18 18 18 18 18 18 17 17
2 2 2 2 3 5 6 6 5 4 5 4 5 7 7 7 6 7 7 8 7 5 7 9 7 7 8 9 15 18 18 18 18 18 18 17 17 16
2 2 2 2 3 3 5 6 6 7 6 5 6 7 7 7 7 7 7 8 8 7 7 8 7 8 9 12 17 18 17 17 17 18 18 17 17 16
1 1 1 2 3 3 3 4 4 5 6 4 4 6 6 6 6 6 7 8 8 5 5 6 7 7 9 10 15 16 16 17 17 18 19 18 17 16
1 1 1 1 5 6 3 4 5 5 7 8 9 9 10 11 9 5 6 7 8 6 4 4 5 7 7 6 10 14 16 17 18 18 18 18 17 15
1 1 3 3 5 5 3 3 5 5 6 7 7 8 7 7 9 5 5 6 6 5 4 5 5 6 6 4 6 9 12 15 17 17 18 18 17 11
1 2 2 5 5 5 4 2 5 6 4 5 5 5 5 5 6 6 6 5 6 6 5 5 5 5 5 6 6 7 8 9 11 12 15 17 17 13
1 1 3 5 5 5 4 6 7 6 3 4 4 5 5 5 6 7 8 8 6 7 8 7 5 6 6 7 7 7 8 9 8 8 9 14 14 15
1 3 4 5 5 4 5 6 5 3 3 3 4 5 5 5 6 6 7 8 8 7 7 7 5 5 5 6 6 7 7 7 7 7 8 8 7 8
3 3 4 5 4 4 4 3 3 3 3 3 4 4 4 5 5 5 6 6 6 6 8 8 6 5 5 6 6 7 7 6 7 8 8 7 7 8
2 1 2 2 3 3 3 3 3 3 3 3 3 4 5 5 5 5 5 6 5 6 7 7 8 7 5 5 5 6 7 7 7 8 7 7 6 7
2 1 1 2 2 2 3 3 3 3 3 3 3 4 5 5 6 6 5 5 6 6 6 7 7 7 5 3 3 5 6 6 7 8 6 6 7 7
1 1 1 1 2 2 2 3 3 3 3 3 3 4 4 5 5 5 6 6 6 6 6 6 6 6 7 8 6 4 5 7 7 7 6 5 6 7
1 1 2 2 2 2 3 3 3 3 3 3 3 4 4 4 5 5 5 6 6 7 7 6 6 6 6 6 6 6 9 6 6 7 7 5 5 7
1 1 1 2 2 2 3 3 3 3 3 3 3 4 4 4 4 5 5 8 7 6 7 7 7 10 6 4 4 5 6 9 8 6 6 5 5 5
1 1 1 2 2 2 2 3 3 3 3 3 4 4 4 4 4 5 5 5 6 6 7 6 7 6 4 4 6 7 7 8 10 10 9 6 4 4
1 2 2 2 2 2 2 3 3 3 3 3 3 4 4 4 4 4 5 5 5 6 6 6 6 5 5 4 5 6 7 8 7 7 7 12 11 9
Wind_Direction
175 194 240 294 315 307 297 282 279 300 302 293 310 309 320 315 314 318 314 316 318 316 317 318 320 322 323 323 324 324 323 321 320 319 319 319 319 320
183 183 242 270 305 312 312 306 279 270 284 297 305 311 318 319 318 319 313 318 318 317 316 318 319 319 321 323 324 324 324 324 323 322 322 321 320 320
185 194 272 313 306 295 293 293 291 284 285 299 306 314 317 316 320 317 315 312 314 317 319 319 319 319 320 323 325 324 325 325 324 323 322 322 322 321
210 219 266 296 287 287 285 284 287 288 290 301 309 315 314 315 317 316 319 318 315 314 319 322 322 322 322 323 325 325 324 324 325 325 324 324 323 322
207 221 246 255 274 292 294 290 291 301 296 298 304 311 312 322 323 320 318 315 317 317 320 321 322 324 324 325 326 326 326 325 326 327 326 325 325 324
220 232 247 252 259 277 285 285 293 297 297 298 303 311 315 322 326 324 322 321 318 319 321 320 320 322 323 323 325 326 326 326 328 328 328 326 325 325
236 247 259 281 303 301 302 300 301 298 304 306 305 312 318 329 326 323 320 320 315 315 321 318 318 317 320 320 323 326 328 329 330 329 330 328 327 326
230 248 263 268 294 309 316 318 315 308 307 303 303 310 312 315 317 322 323 328 320 324 324 313 317 312 316 317 323 328 330 332 333 333 333 332 330 327
228 247 283 306 315 297 311 318 316 314 310 298 298 304 308 313 315 317 320 320 308 312 319 305 310 308 316 319 325 330 332 334 336 337 337 335 333 331
240 240 271 305 316 325 315 315 312 311 311 310 293 298 307 311 311 311 308 311 305 304 316 301 309 308 312 314 322 331 334 336 338 338 338 339 337 333
349 351 334 310 326 338 334 318 320 322 325 322 319 317 319 324 331 329 326 325 318 311 318 310 309 312 304 300 321 331 334 335 336 338 340 341 341 337
356 353 345 338 333 340 335 321 320 324 331 333 331 332 332 332 336 334 321 319 316 308 317 326 315 327 318 300 315 331 334 335 337 339 342 344 345 344
337 335 326 335 339 344 348 330 323 332 331 328 330 336 341 344 346 341 332 317 311 299 307 321 315 318 303 307 313 323 333 334 337 339 342 347 350 351
306 316 324 333 340 345 348 346 348 351 342 339 342 340 340 339 338 338 333 327 312 298 302 307 303 309 312 311 313 321 326 333 339 338 343 345 349 349
331 330 342 348 348 346 350 355 358 356 349 345 337 331 330 330 337 338 338 339 332 324 324 320 311 309 307 306 311 317 321 325 339 338 339 341 343 345
349 345 355 360 357 352 354 352 350 347 344 331 330 328 331 337 343 342 337 339 338 333 333 332 327 317 317 306 309 317 325 327 332 335 335 337 347 350
356 -0 2 359 3 360 353 349 352 352 349 343 340 340 340 342 342 342 338 338 340 336 336 336 334 321 298 301 312 319 325 328 330 336 338 339 342 348
35 23 360 350 347 349 346 346 347 347 344 346 345 342 339 338 339 340 338 338 339 335 333 334 337 337 337 329 308 321 331 332 332 334 334 334 339 344
44 23 354 336 339 343 343 338 334 335 338 342 342 338 336 336 337 336 338 340 339 335 331 331 338 344 345 343 330 341 331 329 335 339 339 334 331 333
20 11 350 337 339 341 336 333 333 335 339 340 340 337 336 334 333 332 334 336 334 332 332 334 339 340 333 320 314 318 330 330 334 338 337 331 326 327
353 347 338 339 339 334 329 330 329 326 329 333 335 333 332 333 332 329 328 330 334 332 334 333 326 323 311 309 322 333 335 344 345 335 332 334 339 351
329 327 330 332 330 324 322 326 326 327 329 331 329 330 329 325 324 324 326 328 329 330 326 324 325 329 333 341 341 337 338 342 350 358 6 9 355 358
325 332 333 327 326 324 319 320 321 321 321 321 320 322 322 320 319 319 321 325 328 333 335 335 336 336 336 338 342 343 344 347 351 359 4 8 13 11
Height
1519 1519 1519 1519 1518 1518 1517 1515 1514 1510 1506 1504 1503 1500 1498 1495 1491 1488 1484 1481 1478 1474 1470 1467 1463 1459 1455 1451 1446 1442 1438 1435 1430 1427 1423 1420 1416 1413
1516 1516 1516 1516 1515 1514 1514 1513 1511 1510 1506 1502 1500 1497 1494 1491 1488 1484 1481 1477 1473 1470 1466 1463 1459 1455 1451 1446 1442 1438 1434 1430 1426 1422 1419 1415 1412 1408
1513 1513 1513 1513 1512 1511 1510 1509 1508 1507 1503 1499 1497 1494 1491 1487 1484 1480 1477 1473 1469 1466 1462 1458 1454 1450 1446 1442 1438 1434 1430 1426 1422 1418 1414 1411 1407 1403
1510 1510 1509 1509 1509 1508 1507 1506 1505 1503 1501 1496 1493 1490 1487 1484 1480 1476 1472 1469 1465 1462 1458 1454 1450 1446 1442 1438 1434 1430 1426 1421 1417 1414 1410 1406 1402 1398
1506 1506 1506 1506 1505 1505 1504 1502 1501 1500 1497 1494 1490 1487 1483 1480 1476 1472 1469 1465 1461 1458 1454 1450 1447 1442 1438 1434 1430 1426 1422 1417 1413 1409 1406 1401 1398 1394
1503 1503 1503 1503 1502 1502 1500 1499 1498 1496 1493 1490 1487 1483 1480 1476 1473 1468 1463 1460 1457 1454 1450 1446 1443 1439 1434 1430 1426 1422 1417 1413 1409 1405 1401 1398 1394 1390
1500 1500 1500 1500 1499 1499 1497 1496 1494 1492 1490 1487 1484 1480 1477 1473 1469 1465 1461 1457 1453 1450 1445 1442 1439 1434 1430 1426 1422 1418 1414 1410 1406 1402 1397 1394 1390 1386
1497 1497 1497 1496 1496 1495 1494 1493 1491 1489 1486 1484 1481 1477 1474 1471 1468 1463 1459 1454 1449 1447 1443 1438 1435 1431 1427 1423 1419 1415 1410 1406 1402 1398 1394 1390 1386 1383
1494 1494 1493 1493 1492 1491 1490 1489 1487 1486 1484 1482 1478 1475 1472 1469 1465 1461 1457 1453 1449 1445 1440 1435 1432 1428 1424 1420 1416 1412 1407 1403 1399 1395 1391 1387 1383 1379
1490 1490 1490 1489 1489 1488 1486 1485 1483 1482 1480 1477 1475 1473 1470 1467 1464 1460 1456 1451 1447 1444 1440 1433 1428 1425 1421 1417 1413 1409 1404 1400 1396 1392 1388 1383 1379 1376
1487 1487 1487 1486 1486 1485 1483 1481 1480 1478 1476 1475 1473 1470 1467 1464 1461 1457 1453 1448 1443 1440 1438 1433 1427 1422 1417 1413 1410 1406 1402 1398 1394 1389 1385 1381 1377 1373
1484 1484 1484 1483 1482 1481 1480 1478 1476 1474 1472 1470 1468 1466 1464 1461 1458 1455 1452 1448 1443 1438 1435 1432 1426 1421 1414 1410 1408 1404 1399 1395 1391 1387 1383 1379 1375 1371
1481 1481 1480 1480 1479 1479 1477 1476 1474 1472 1470 1468 1465 1463 1460 1458 1455 1452 1450 1447 1443 1438 1435 1431 1426 1422 1418 1411 1405 1402 1398 1393 1389 1385 1382 1378 1374 1370
1478 1478 1478 1477 1477 1476 1474 1473 1472 1470 1467 1465 1462 1460 1457 1455 1452 1450 1447 1444 1441 1437 1433 1430 1426 1422 1417 1411 1406 1401 1397 1393 1389 1384 1380 1377 1373 1370
1475 1475 1475 1475 1474 1473 1472 1471 1469 1467 1465 1462 1460 1458 1456 1453 1450 1447 1444 1442 1438 1435 1432 1428 1425 1421 1417 1412 1406 1401 1396 1392 1388 1384 1380 1376 1372 1368
1473 1473 1473 1472 1471 1470 1469 1468 1466 1465 1463 1461 1458 1456 1454 1451 1448 1445 1442 1438 1435 1432 1430 1427 1423 1419 1415 1411 1406 1401 1397 1393 1388 1384 1380 1376 1372 1369
1470 1470 1470 1469 1468 1467 1466 1465 1464 1462 1461 1459 1456 1454 1451 1449 1446 1444 1441 1437 1434 1430 1427 1425 1422 1418 1414 1410 1405 1401 1397 1393 1389 1384 1380 1376 1372 1369
1468 1467 1467 1466 1466 1465 1464 1463 1462 1460 1459 1457 1455 1452 1450 1447 1445 1442 1440 1437 1433 1430 1427 1423 1420 1416 1412 1408 1406 1401 1397 1393 1389 1385 1381 1377 1373 1370
1466 1465 1465 1465 1464 1463 1462 1461 1460 1458 1457 1455 1453 1451 1449 1446 1444 1441 1438 1436 1433 1430 1427 1424 1420 1416 1412 1408 1405 1403 1398 1393 1389 1385 1381 1377 1374 1371
1464 1463 1463 1463 1462 1461 1460 1459 1458 1456 1455 1453 1451 1449 1447 1445 1443 1440 1438 1435 1433 1430 1427 1424 1421 1417 1414 1410 1406 1402 1399 1395 1390 1386 1382 1379 1375 1373
1462 1462 1462 1461 1461 1460 1459 1458 1456 1455 1453 1452 1450 1448 1446 1444 1442 1440 1438 1435 1433 1430 1426 1423 1421 1418 1415 1411 1407 1403 1399 1396 1392 1388 1383 1380 1376 1374
1460 1460 1460 1459 1459 1458 1457 1456 1455 1453 1452 1450 1448 1447 1445 1443 1441 1439 1437 1435 1433 1430 1427 1424 1421 1418 1415 1411 1407 1403 1400 1396 1393 1390 1386 1383 1380 1376
1458 1458 1458 1457 1457 1456 1455 1454 1453 1451 1450 1449 1447 1446 1444 1442 1440 1439 1437 1435 1433 1430 1427 1424 1421 1418 1415 1412 1408 1404 1401 1397 1394 1390 1388 1385 1383 1381